Time,TemperatureF,DewpointF,PressureIn,WindDirection,WindDirectionDegrees,WindSpeedMPH,WindSpeedGustMPH,Humidity,HourlyPrecipIn,Conditions,Clouds,dailyrainin,SoftwareType,DateUTC
2013-06-09 00:01:00,61.5,41.1,28.94,SW,232,0.0,0.0,47,0.00,,---,0.00,VWS V14.00,2013-06-09 07:01:00,
2013-06-09 00:07:00,61.3,41.0,28.94,WSW,245,0.0,0.0,47,0.00,,---,0.00,VWS V14.00,2013-06-09 07:07:00,
2013-06-09 00:14:00,61.3,41.0,28.94,WSW,245,0.0,0.0,47,0.00,,---,0.00,VWS V14.00,2013-06-09 07:14:00,
2013-06-09 00:19:00,61.2,40.8,28.94,WSW,245,0.0,0.0,47,0.00,,---,0.00,VWS V14.00,2013-06-09 07:19:00,
2013-06-09 00:24:00,61.2,40.8,28.94,WSW,245,0.0,0.0,47,0.00,,---,0.00,VWS V14.00,2013-06-09 07:24:00,
2013-06-09 00:29:00,61.0,40.6,28.94,WSW,245,0.0,0.0,47,0.00,,---,0.00,VWS V14.00,2013-06-09 07:29:00,
2013-06-09 00:35:00,60.8,40.5,28.94,WSW,245,0.0,0.0,47,0.00,,---,0.00,VWS V14.00,2013-06-09 07:35:00,
2013-06-09 00:40:00,60.6,40.8,28.94,WSW,245,0.0,0.0,48,0.00,,---,0.00,VWS V14.00,2013-06-09 07:40:00,
2013-06-09 00:45:00,60.6,40.8,28.94,WSW,245,0.0,0.0,48,0.00,,---,0.00,VWS V14.00,2013-06-09 07:45:00,
2013-06-09 00:50:00,60.4,40.7,28.94,WSW,250,0.0,0.0,48,0.00,,---,0.00,VWS V14.00,2013-06-09 07:50:00,
2013-06-09 00:56:00,60.4,41.2,28.94,WSW,251,0.0,0.0,49,0.00,,---,0.00,VWS V14.00,2013-06-09 07:56:00,
2013-06-09 01:01:00,60.4,41.2,28.94,WSW,251,0.0,0.0,49,0.00,,---,0.00,VWS V14.00,2013-06-09 08:01:00,
2013-06-09 01:06:00,60.3,41.0,28.94,WSW,245,0.0,0.0,49,0.00,,---,0.00,VWS V14.00,2013-06-09 08:06:00,
2013-06-09 01:12:00,60.3,41.6,28.94,West,262,0.0,0.0,50,0.00,,---,0.00,VWS V14.00,2013-06-09 08:12:00,
2013-06-09 01:18:00,60.1,41.4,28.94,WSW,257,0.0,0.0,50,0.00,,---,0.00,VWS V14.00,2013-06-09 08:18:00,
2013-06-09 01:25:00,60.1,41.4,28.94,WSW,245,0.0,0.0,50,0.00,,---,0.00,VWS V14.00,2013-06-09 08:25:00,
2013-06-09 01:31:00,59.9,41.8,28.94,SW,233,0.0,0.0,51,0.00,,---,0.00,VWS V14.00,2013-06-09 08:31:00,
2013-06-09 01:36:00,59.7,41.6,28.94,WSW,249,0.0,0.0,51,0.00,,---,0.00,VWS V14.00,2013-06-09 08:36:00,
2013-06-09 01:42:00,59.5,41.4,28.94,WSW,249,0.0,0.0,51,0.00,,---,0.00,VWS V14.00,2013-06-09 08:42:00,
2013-06-09 01:47:00,59.4,41.2,28.94,WSW,248,0.0,0.0,51,0.00,,---,0.00,VWS V14.00,2013-06-09 08:47:00,
2013-06-09 01:56:00,59.4,41.8,28.94,WSW,248,0.0,0.0,52,0.00,,---,0.00,VWS V14.00,2013-06-09 08:56:00,
2013-06-09 02:01:00,59.2,41.6,28.94,WSW,248,0.0,0.0,52,0.00,,---,0.00,VWS V14.00,2013-06-09 09:01:00,
2013-06-09 02:07:00,59.0,41.4,28.94,WSW,242,0.0,0.0,52,0.00,,---,0.00,VWS V14.00,2013-06-09 09:07:00,
2013-06-09 02:13:00,59.0,41.4,28.94,WSW,243,0.0,0.0,52,0.00,,---,0.00,VWS V14.00,2013-06-09 09:13:00,
2013-06-09 02:18:00,58.8,41.7,28.94,WSW,242,0.0,0.0,53,0.00,,---,0.00,VWS V14.00,2013-06-09 09:18:00,
2013-06-09 02:24:00,58.6,41.6,28.94,WSW,242,0.0,0.0,53,0.00,,---,0.00,VWS V14.00,2013-06-09 09:24:00,
2013-06-09 02:30:00,58.6,42.1,28.94,WSW,247,0.0,0.0,54,0.00,,---,0.00,VWS V14.00,2013-06-09 09:30:00,
2013-06-09 02:36:00,58.5,42.4,28.94,WSW,254,0.0,0.0,55,0.00,,---,0.00,VWS V14.00,2013-06-09 09:36:00,
2013-06-09 02:41:00,58.3,42.2,28.94,WSW,254,0.0,0.0,55,0.00,,---,0.00,VWS V14.00,2013-06-09 09:41:00,
2013-06-09 02:46:00,58.3,42.2,28.94,WSW,254,0.0,0.0,55,0.00,,---,0.00,VWS V14.00,2013-06-09 09:46:00,
2013-06-09 02:52:00,58.1,42.0,28.94,WSW,254,0.0,0.0,55,0.00,,---,0.00,VWS V14.00,2013-06-09 09:52:00,
2013-06-09 02:58:00,58.1,42.5,28.94,WSW,254,0.0,0.0,56,0.00,,---,0.00,VWS V14.00,2013-06-09 09:58:00,
2013-06-09 03:03:00,57.9,42.3,28.94,WSW,254,0.0,0.0,56,0.00,,---,0.00,VWS V14.00,2013-06-09 10:03:00,
2013-06-09 03:09:00,57.9,42.3,28.94,WSW,254,0.0,0.0,56,0.00,,---,0.00,VWS V14.00,2013-06-09 10:09:00,
2013-06-09 03:14:00,57.7,42.2,28.94,WSW,254,0.0,0.0,56,0.00,,---,0.00,VWS V14.00,2013-06-09 10:14:00,
2013-06-09 03:19:00,57.7,42.6,28.94,WSW,254,0.0,0.0,57,0.00,,---,0.00,VWS V14.00,2013-06-09 10:19:00,
2013-06-09 03:24:00,57.6,42.5,28.94,WSW,257,0.0,0.0,57,0.00,,---,0.00,VWS V14.00,2013-06-09 10:24:00,
2013-06-09 03:29:00,57.4,42.7,28.94,WSW,257,0.0,0.0,58,0.00,,---,0.00,VWS V14.00,2013-06-09 10:29:00,
2013-06-09 03:34:00,57.4,42.7,28.94,WSW,257,0.0,0.0,58,0.00,,---,0.00,VWS V14.00,2013-06-09 10:34:00,
2013-06-09 03:39:00,57.4,42.7,28.94,WSW,257,0.0,0.0,58,0.00,,---,0.00,VWS V14.00,2013-06-09 10:39:00,
2013-06-09 03:44:00,57.2,43.0,28.94,WSW,258,0.0,0.0,59,0.00,,---,0.00,VWS V14.00,2013-06-09 10:44:00,
2013-06-09 03:49:00,57.2,43.0,28.94,WSW,258,0.0,0.0,59,0.00,,---,0.00,VWS V14.00,2013-06-09 10:49:00,
2013-06-09 03:54:00,57.0,43.3,28.94,WSW,258,0.0,0.0,60,0.00,,---,0.00,VWS V14.00,2013-06-09 10:54:00,
2013-06-09 03:59:00,57.0,43.3,28.94,WSW,258,0.0,0.0,60,0.00,,---,0.00,VWS V14.00,2013-06-09 10:59:00,
2013-06-09 04:04:00,57.0,43.3,28.94,WSW,258,0.0,0.0,60,0.00,,---,0.00,VWS V14.00,2013-06-09 11:04:00,
2013-06-09 04:10:00,56.8,43.5,28.94,WSW,258,0.0,0.0,61,0.00,,---,0.00,VWS V14.00,2013-06-09 11:10:00,
2013-06-09 04:16:00,56.8,43.5,28.94,WSW,258,0.0,0.0,61,0.00,,---,0.00,VWS V14.00,2013-06-09 11:16:00,
2013-06-09 04:21:00,56.8,43.5,28.94,WSW,258,0.0,0.0,61,0.00,,---,0.00,VWS V14.00,2013-06-09 11:21:00,
2013-06-09 04:26:00,56.7,43.8,28.94,WSW,258,0.0,0.0,62,0.00,,---,0.00,VWS V14.00,2013-06-09 11:26:00,
2013-06-09 04:31:00,56.7,43.8,28.94,WSW,258,0.0,0.0,62,0.00,,---,0.00,VWS V14.00,2013-06-09 11:31:00,
2013-06-09 04:36:00,56.7,43.8,28.94,WSW,258,0.0,0.0,62,0.00,,---,0.00,VWS V14.00,2013-06-09 11:36:00,
2013-06-09 04:41:00,56.7,44.2,28.94,WSW,258,0.0,0.0,63,0.00,,---,0.00,VWS V14.00,2013-06-09 11:41:00,
2013-06-09 04:46:00,56.7,44.2,28.94,WSW,258,0.0,0.0,63,0.00,,---,0.00,VWS V14.00,2013-06-09 11:46:00,
2013-06-09 04:52:00,56.7,44.2,28.94,WSW,258,0.0,0.0,63,0.00,,---,0.00,VWS V14.00,2013-06-09 11:52:00,
2013-06-09 04:59:00,56.7,44.2,28.94,WSW,258,0.0,0.0,63,0.00,,---,0.00,VWS V14.00,2013-06-09 11:59:00,
2013-06-09 05:04:00,56.5,44.5,28.94,WSW,258,0.0,0.0,64,0.00,,---,0.00,VWS V14.00,2013-06-09 12:04:00,
2013-06-09 05:10:00,56.5,44.5,28.94,WSW,258,0.0,0.0,64,0.00,,---,0.00,VWS V14.00,2013-06-09 12:10:00,
2013-06-09 05:16:00,56.5,44.5,28.94,WSW,258,0.0,0.0,64,0.00,,---,0.00,VWS V14.00,2013-06-09 12:16:00,
2013-06-09 05:22:00,56.5,44.9,28.94,WSW,258,0.0,0.0,65,0.00,,---,0.00,VWS V14.00,2013-06-09 12:22:00,
2013-06-09 05:27:00,56.3,44.7,28.94,WSW,258,0.0,0.0,65,0.00,,---,0.00,VWS V14.00,2013-06-09 12:27:00,
2013-06-09 05:33:00,56.3,44.7,28.94,WSW,258,0.0,0.0,65,0.00,,---,0.00,VWS V14.00,2013-06-09 12:33:00,
2013-06-09 05:40:00,56.3,45.1,28.94,WSW,258,0.0,0.0,66,0.00,,---,0.00,VWS V14.00,2013-06-09 12:40:00,
2013-06-09 05:45:00,56.3,45.1,28.94,WSW,258,0.0,0.0,66,0.00,,---,0.00,VWS V14.00,2013-06-09 12:45:00,
2013-06-09 05:50:00,56.3,45.5,28.94,WSW,250,0.0,0.0,67,0.00,,---,0.00,VWS V14.00,2013-06-09 12:50:00,
2013-06-09 05:57:00,56.3,45.5,28.97,WSW,250,0.0,0.0,67,0.00,,---,0.00,VWS V14.00,2013-06-09 12:57:00,
2013-06-09 06:02:00,56.5,45.7,28.97,WSW,250,0.0,0.0,67,0.00,,---,0.00,VWS V14.00,2013-06-09 13:02:00,
2013-06-09 06:07:00,56.5,46.1,28.97,WSW,250,0.0,0.0,68,0.00,,---,0.00,VWS V14.00,2013-06-09 13:07:00,
2013-06-09 06:13:00,56.7,46.2,28.97,NW,312,0.0,0.0,68,0.00,,---,0.00,VWS V14.00,2013-06-09 13:13:00,
2013-06-09 06:27:00,56.8,46.8,28.97,WNW,301,0.0,0.0,69,0.00,,---,0.00,VWS V14.00,2013-06-09 13:27:00,
2013-06-09 06:33:00,57.0,47.0,28.97,SW,229,0.0,0.0,69,0.00,,---,0.00,VWS V14.00,2013-06-09 13:33:00,
2013-06-09 06:40:00,57.2,47.1,28.97,West,267,0.0,0.0,69,0.00,,---,0.00,VWS V14.00,2013-06-09 13:40:00,
2013-06-09 06:47:00,57.2,47.1,28.97,WSW,258,0.0,0.0,69,0.00,,---,0.00,VWS V14.00,2013-06-09 13:47:00,
2013-06-09 06:53:00,57.4,47.3,28.97,WNW,297,0.0,0.0,69,0.00,,---,0.00,VWS V14.00,2013-06-09 13:53:00,
2013-06-09 06:59:00,57.6,47.5,28.97,WNW,297,0.0,0.0,69,0.00,,---,0.00,VWS V14.00,2013-06-09 13:59:00,
2013-06-09 07:04:00,57.6,47.5,28.97,South,185,0.0,0.0,69,0.00,,---,0.00,VWS V14.00,2013-06-09 14:04:00,
2013-06-09 07:10:00,57.7,47.7,28.97,WSW,252,0.0,0.0,69,0.00,,---,0.00,VWS V14.00,2013-06-09 14:10:00,
2013-06-09 07:17:00,57.9,47.4,28.97,SW,236,0.0,0.0,68,0.00,,---,0.00,VWS V14.00,2013-06-09 14:17:00,
2013-06-09 07:23:00,58.1,47.6,28.97,SW,230,0.0,0.0,68,0.00,,---,0.00,VWS V14.00,2013-06-09 14:23:00,
2013-06-09 07:29:00,58.3,47.8,28.97,WSW,237,0.0,0.0,68,0.00,,---,0.00,VWS V14.00,2013-06-09 14:29:00,
2013-06-09 07:34:00,58.3,47.8,28.97,SW,219,0.0,0.0,68,0.00,,---,0.00,VWS V14.00,2013-06-09 14:34:00,
2013-06-09 07:40:00,58.5,47.6,28.97,WSW,247,0.0,0.0,67,0.00,,---,0.00,VWS V14.00,2013-06-09 14:40:00,
2013-06-09 07:45:00,58.6,47.7,28.97,SSE,161,0.0,0.0,67,0.00,,---,0.00,VWS V14.00,2013-06-09 14:45:00,
2013-06-09 07:50:00,58.8,47.9,28.97,WSW,257,0.0,0.0,67,0.00,,---,0.00,VWS V14.00,2013-06-09 14:50:00,
2013-06-09 07:56:00,59.2,47.8,28.97,West,280,0.0,0.0,66,0.00,,---,0.00,VWS V14.00,2013-06-09 14:56:00,
2013-06-09 08:01:00,59.4,48.0,28.97,NW,314,0.0,0.0,66,0.00,,---,0.00,VWS V14.00,2013-06-09 15:01:00,
2013-06-09 08:06:00,59.5,47.8,28.97,NNW,340,0.0,0.0,65,0.00,,---,0.00,VWS V14.00,2013-06-09 15:06:00,
2013-06-09 08:11:00,59.7,48.0,28.97,WNW,288,0.0,0.0,65,0.00,,---,0.00,VWS V14.00,2013-06-09 15:11:00,
2013-06-09 08:17:00,59.7,47.5,28.97,NW,320,0.0,0.0,64,0.00,,---,0.00,VWS V14.00,2013-06-09 15:17:00,
2013-06-09 08:22:00,60.1,47.5,28.97,East,95,0.0,0.0,63,0.00,,---,0.00,VWS V14.00,2013-06-09 15:22:00,
2013-06-09 08:28:00,60.3,47.6,28.97,WNW,295,0.0,0.0,63,0.00,,---,0.00,VWS V14.00,2013-06-09 15:28:00,
2013-06-09 08:35:00,60.3,47.2,28.97,West,270,0.0,0.0,62,0.00,,---,0.00,VWS V14.00,2013-06-09 15:35:00,
2013-06-09 08:41:00,60.6,47.1,28.97,West,277,0.0,0.0,61,0.00,,---,0.00,VWS V14.00,2013-06-09 15:41:00,
2013-06-09 08:47:00,60.8,46.8,29.00,SE,132,0.0,0.0,60,0.00,,---,0.00,VWS V14.00,2013-06-09 15:47:00,
2013-06-09 08:56:00,61.0,46.1,29.00,SW,236,0.0,2.7,58,0.00,,---,0.00,VWS V14.00,2013-06-09 15:56:00,
2013-06-09 09:02:00,61.2,46.3,29.00,WSW,254,0.0,0.0,58,0.00,,---,0.00,VWS V14.00,2013-06-09 16:02:00,
2013-06-09 09:07:00,61.5,46.2,29.00,NW,320,0.0,0.0,57,0.00,,---,0.00,VWS V14.00,2013-06-09 16:07:00,
2013-06-09 09:15:00,62.1,45.7,29.00,North,357,0.0,0.0,55,0.00,,---,0.00,VWS V14.00,2013-06-09 16:15:00,
2013-06-09 09:20:00,62.2,45.4,29.00,SE,134,0.0,0.0,54,0.00,,---,0.00,VWS V14.00,2013-06-09 16:20:00,
2013-06-09 09:30:00,65.8,43.3,29.00,NW,322,0.0,4.0,44,0.00,,---,0.00,VWS V14.00,2013-06-09 16:30:00,
2013-06-09 10:25:00,65.8,43.3,29.00,SSW,200,0.0,2.2,44,0.00,,---,0.00,VWS V14.00,2013-06-09 17:25:00,
2013-06-09 10:30:00,65.8,43.3,29.00,South,171,0.0,0.0,44,0.00,,---,0.00,VWS V14.00,2013-06-09 17:30:00,
2013-06-09 10:37:00,66.2,43.1,29.00,WNW,285,0.0,0.0,43,0.00,,---,0.00,VWS V14.00,2013-06-09 17:37:00,
2013-06-09 10:42:00,66.6,43.4,29.00,ESE,122,2.2,2.2,43,0.00,,---,0.00,VWS V14.00,2013-06-09 17:42:00,
2013-06-09 10:48:00,67.1,43.9,29.00,West,266,0.0,0.0,43,0.00,,---,0.00,VWS V14.00,2013-06-09 17:48:00,
2013-06-09 10:54:00,67.5,42.3,29.00,SSE,156,0.0,0.0,40,0.00,,---,0.00,VWS V14.00,2013-06-09 17:54:00,
2013-06-09 11:00:00,67.8,42.6,29.00,WNW,292,0.0,0.0,40,0.00,,---,0.00,VWS V14.00,2013-06-09 18:00:00,
2013-06-09 11:06:00,68.0,42.1,29.00,NNW,327,0.0,2.7,39,0.00,,---,0.00,VWS V14.00,2013-06-09 18:06:00,
2013-06-09 11:12:00,68.4,41.8,29.00,West,278,0.0,2.7,38,0.00,,---,0.00,VWS V14.00,2013-06-09 18:12:00,
2013-06-09 11:17:00,68.7,41.4,29.00,West,279,0.0,0.0,37,0.00,,---,0.00,VWS V14.00,2013-06-09 18:17:00,
2013-06-09 11:23:00,68.7,40.7,29.00,SE,146,2.2,2.7,36,0.00,,---,0.00,VWS V14.00,2013-06-09 18:23:00,
2013-06-09 11:28:00,68.7,41.4,29.00,SE,144,0.0,0.0,37,0.00,,---,0.00,VWS V14.00,2013-06-09 18:28:00,
2013-06-09 11:35:00,69.1,41.0,29.00,ESE,102,0.0,0.0,36,0.00,,---,0.00,VWS V14.00,2013-06-09 18:35:00,
2013-06-09 11:40:00,69.3,41.2,29.00,NW,306,2.7,3.6,36,0.00,,---,0.00,VWS V14.00,2013-06-09 18:40:00,
2013-06-09 11:45:00,69.3,41.2,29.00,SE,128,0.0,0.0,36,0.00,,---,0.00,VWS V14.00,2013-06-09 18:45:00,
2013-06-09 11:50:00,69.6,41.5,29.00,WNW,282,0.0,0.0,36,0.00,,---,0.00,VWS V14.00,2013-06-09 18:50:00,
2013-06-09 11:56:00,70.0,41.1,29.00,West,279,2.2,2.2,35,0.00,,---,0.00,VWS V14.00,2013-06-09 18:56:00,
2013-06-09 12:01:00,70.0,41.1,29.00,ESE,117,0.0,0.0,35,0.00,,---,0.00,VWS V14.00,2013-06-09 19:01:00,
2013-06-09 12:07:00,70.5,41.6,29.00,West,264,0.0,0.0,35,0.00,,---,0.00,VWS V14.00,2013-06-09 19:07:00,
2013-06-09 12:15:00,71.2,42.2,29.00,SSW,207,0.0,2.2,35,0.00,,---,0.00,VWS V14.00,2013-06-09 19:15:00,
2013-06-09 12:20:00,71.8,41.9,29.00,West,270,0.0,0.0,34,0.00,,---,0.00,VWS V14.00,2013-06-09 19:20:00,
2013-06-09 12:25:00,72.1,41.5,29.00,NW,307,0.0,2.2,33,0.00,,---,0.00,VWS V14.00,2013-06-09 19:25:00,
2013-06-09 12:30:00,72.1,41.5,29.00,ESE,111,0.0,3.1,33,0.00,,---,0.00,VWS V14.00,2013-06-09 19:30:00,
2013-06-09 12:36:00,72.7,42.0,29.00,West,263,0.0,0.0,33,0.00,,---,0.00,VWS V14.00,2013-06-09 19:36:00,
2013-06-09 12:42:00,73.0,41.5,29.00,SSW,206,0.0,2.2,32,0.00,,---,0.00,VWS V14.00,2013-06-09 19:42:00,
2013-06-09 12:47:00,73.6,41.9,29.00,NNW,348,0.0,0.0,32,0.00,,---,0.00,VWS V14.00,2013-06-09 19:47:00,
2013-06-09 12:52:00,74.1,42.4,29.00,NW,311,0.0,2.7,32,0.00,,---,0.00,VWS V14.00,2013-06-09 19:52:00,
2013-06-09 12:58:00,75.0,42.4,29.00,West,259,2.7,2.7,31,0.00,,---,0.00,VWS V14.00,2013-06-09 19:58:00,
2013-06-09 13:04:00,75.9,43.1,29.00,WNW,287,0.0,2.7,31,0.00,,---,0.00,VWS V14.00,2013-06-09 20:04:00,
2013-06-09 13:10:00,76.6,42.0,29.00,WSW,249,0.0,2.7,29,0.00,,---,0.00,VWS V14.00,2013-06-09 20:10:00,
2013-06-09 13:15:00,77.4,41.7,29.00,SSW,213,0.0,0.0,28,0.00,,---,0.00,VWS V14.00,2013-06-09 20:15:00,
2013-06-09 13:22:00,78.3,40.6,29.00,WNW,284,0.0,3.1,26,0.00,,---,0.00,VWS V14.00,2013-06-09 20:22:00,
2013-06-09 13:27:00,78.6,39.9,29.00,West,273,0.0,2.2,25,0.00,,---,0.00,VWS V14.00,2013-06-09 20:27:00,
2013-06-09 13:33:00,78.6,38.8,29.00,WNW,287,0.0,2.7,24,0.00,,---,0.00,VWS V14.00,2013-06-09 20:33:00,
2013-06-09 13:38:00,78.8,37.9,29.00,NW,320,0.0,3.6,23,0.00,,---,0.00,VWS V14.00,2013-06-09 20:38:00,
2013-06-09 13:44:00,78.6,38.8,29.00,North,353,0.0,2.7,24,0.00,,---,0.00,VWS V14.00,2013-06-09 20:44:00,
2013-06-09 13:49:00,78.4,37.6,29.00,WNW,303,2.2,3.1,23,0.00,,---,0.00,VWS V14.00,2013-06-09 20:49:00,
2013-06-09 13:54:00,78.4,37.6,29.00,West,260,2.7,2.7,23,0.00,,---,0.00,VWS V14.00,2013-06-09 20:54:00,
2013-06-09 13:59:00,79.0,36.9,29.00,West,265,2.7,3.6,22,0.00,,---,0.00,VWS V14.00,2013-06-09 20:59:00,
2013-06-09 14:04:00,78.6,36.6,29.00,East,99,2.2,2.7,22,0.00,,---,0.00,VWS V14.00,2013-06-09 21:04:00,
2013-06-09 14:09:00,78.3,37.5,29.00,West,262,0.0,3.6,23,0.00,,---,0.00,VWS V14.00,2013-06-09 21:09:00,
2013-06-09 14:15:00,77.9,37.2,29.00,SSW,209,0.0,2.2,23,0.00,,---,0.00,VWS V14.00,2013-06-09 21:15:00,
2013-06-09 14:21:00,77.2,36.5,29.00,SSE,167,2.2,3.1,23,0.00,,---,0.00,VWS V14.00,2013-06-09 21:21:00,
2013-06-09 14:27:00,76.5,37.0,29.00,WNW,294,3.1,3.1,24,0.00,,---,0.00,VWS V14.00,2013-06-09 21:27:00,
2013-06-09 14:33:00,76.5,37.0,29.00,West,262,2.7,2.7,24,0.00,,---,0.00,VWS V14.00,2013-06-09 21:33:00,
2013-06-09 14:39:00,76.5,37.0,29.00,WSW,237,0.0,2.7,24,0.00,,---,0.00,VWS V14.00,2013-06-09 21:39:00,
2013-06-09 14:44:00,75.4,36.1,29.00,SSE,160,2.2,3.1,24,0.00,,---,0.00,VWS V14.00,2013-06-09 21:44:00,
2013-06-09 14:50:00,74.7,36.5,29.00,SSW,205,2.2,3.6,25,0.00,,---,0.00,VWS V14.00,2013-06-09 21:50:00,
2013-06-09 14:55:00,73.4,35.5,29.00,WSW,243,2.7,3.1,25,0.00,,---,0.00,VWS V14.00,2013-06-09 21:55:00,
2013-06-09 15:00:00,72.5,36.7,29.00,SSW,213,0.0,5.4,27,0.00,,---,0.00,VWS V14.00,2013-06-09 22:00:00,
2013-06-09 15:06:00,72.0,37.1,29.00,WSW,252,2.7,3.1,28,0.00,,---,0.00,VWS V14.00,2013-06-09 22:06:00,
2013-06-09 15:11:00,71.8,37.0,29.00,WSW,244,2.7,4.0,28,0.00,,---,0.00,VWS V14.00,2013-06-09 22:11:00,
2013-06-09 15:17:00,71.4,38.4,29.00,SW,221,2.2,2.7,30,0.00,,---,0.00,VWS V14.00,2013-06-09 22:17:00,
2013-06-09 15:22:00,71.2,38.2,29.00,ENE,57,2.2,2.2,30,0.00,,---,0.00,VWS V14.00,2013-06-09 22:22:00,
2013-06-09 15:27:00,71.1,38.9,28.97,East,90,0.0,3.1,31,0.00,,---,0.00,VWS V14.00,2013-06-09 22:27:00,
2013-06-09 15:32:00,70.7,39.4,28.97,WSW,256,3.6,3.6,32,0.00,,---,0.00,VWS V14.00,2013-06-09 22:32:00,
2013-06-09 15:38:00,70.7,39.4,28.97,NE,45,0.0,2.2,32,0.00,,---,0.00,VWS V14.00,2013-06-09 22:38:00,
2013-06-09 15:43:00,70.9,39.6,28.97,WSW,252,2.2,2.7,32,0.00,,---,0.00,VWS V14.00,2013-06-09 22:43:00,
2013-06-09 15:49:00,70.5,39.3,28.97,NNE,29,0.0,4.5,32,0.00,,---,0.00,VWS V14.00,2013-06-09 22:49:00,
2013-06-09 15:54:00,70.3,39.1,28.97,NE,41,0.0,2.7,32,0.00,,---,0.00,VWS V14.00,2013-06-09 22:54:00,
2013-06-09 16:09:00,69.3,39.0,28.97,West,271,2.2,3.6,33,0.00,,---,0.00,VWS V14.00,2013-06-09 23:09:00,
2013-06-09 16:14:00,69.1,38.8,29.00,South,174,4.0,4.0,33,0.00,,---,0.00,VWS V14.00,2013-06-09 23:14:00,
2013-06-09 16:20:00,68.4,38.2,29.00,WNW,285,0.0,3.1,33,0.00,,---,0.00,VWS V14.00,2013-06-09 23:20:00,
2013-06-09 16:25:00,67.6,38.3,29.00,SW,219,2.2,2.2,34,0.00,,---,0.00,VWS V14.00,2013-06-09 23:25:00,
2013-06-09 16:31:00,67.1,37.8,29.00,SSE,165,0.0,2.7,34,0.00,,---,0.00,VWS V14.00,2013-06-09 23:31:00,
2013-06-09 16:36:00,66.9,38.4,29.00,SSE,163,0.0,2.2,35,0.00,,---,0.00,VWS V14.00,2013-06-09 23:36:00,
2013-06-09 16:49:00,67.8,39.2,29.00,NNW,338,0.0,4.0,35,0.00,,---,0.00,VWS V14.00,2013-06-09 23:49:00,
2013-06-09 16:56:00,67.8,39.2,28.97,WNW,282,0.0,3.1,35,0.00,,---,0.00,VWS V14.00,2013-06-09 23:56:00,
2013-06-09 17:02:00,68.0,38.6,28.97,West,266,2.2,2.2,34,0.00,,---,0.00,VWS V14.00,2013-06-10 00:02:00,
2013-06-09 17:08:00,68.4,38.9,28.97,WSW,245,2.2,3.1,34,0.00,,---,0.00,VWS V14.00,2013-06-10 00:08:00,
2013-06-09 17:13:00,68.2,38.8,29.00,South,172,0.0,0.0,34,0.00,,---,0.00,VWS V14.00,2013-06-10 00:13:00,
2013-06-09 17:19:00,67.6,39.0,29.00,SE,146,2.2,2.7,35,0.00,,---,0.00,VWS V14.00,2013-06-10 00:19:00,
2013-06-09 17:24:00,67.3,38.7,29.00,SSE,149,0.0,2.2,35,0.00,,---,0.00,VWS V14.00,2013-06-10 00:24:00,
2013-06-09 17:30:00,66.7,38.2,29.00,NNW,340,2.7,3.1,35,0.00,,---,0.00,VWS V14.00,2013-06-10 00:30:00,
2013-06-09 17:35:00,66.6,38.8,29.00,WNW,301,0.0,0.0,36,0.00,,---,0.00,VWS V14.00,2013-06-10 00:35:00,
2013-06-09 18:22:00,64.0,39.9,29.00,NNW,343,0.0,4.0,41,0.00,,---,0.00,VWS V14.00,2013-06-10 01:22:00,
2013-06-09 18:28:00,64.0,39.9,28.97,West,268,0.0,0.0,41,0.00,,---,0.00,VWS V14.00,2013-06-10 01:28:00,
2013-06-09 18:41:00,63.9,40.3,28.97,SE,143,0.0,3.6,42,0.00,,---,0.00,VWS V14.00,2013-06-10 01:41:00,
2013-06-09 18:47:00,63.9,40.3,28.97,WNW,289,0.0,0.0,42,0.00,,---,0.00,VWS V14.00,2013-06-10 01:47:00,
2013-06-09 18:52:00,63.7,40.2,28.97,East,95,0.0,0.0,42,0.00,,---,0.00,VWS V14.00,2013-06-10 01:52:00,
2013-06-09 18:58:00,63.1,40.3,28.97,WNW,300,0.0,0.0,43,0.00,,---,0.00,VWS V14.00,2013-06-10 01:58:00,
2013-06-09 19:04:00,63.0,40.1,28.97,North,353,0.0,0.0,43,0.00,,---,0.00,VWS V14.00,2013-06-10 02:04:00,
2013-06-09 19:09:00,63.0,40.1,28.97,East,98,2.7,2.7,43,0.00,,---,0.00,VWS V14.00,2013-06-10 02:09:00,
2013-06-09 19:13:00,60.8,39.3,29.00,NW,315,0.0,4.0,45,0.00,,---,0.00,VWS V14.00,2013-06-10 02:13:00,
2013-06-09 19:14:00,60.8,39.3,29.00,SE,138,0.0,2.2,45,0.00,,---,0.00,VWS V14.00,2013-06-10 02:14:00,
2013-06-09 19:15:00,60.6,39.8,29.00,ESE,115,0.0,0.0,46,0.00,,---,0.00,VWS V14.00,2013-06-10 02:15:00,
2013-06-09 19:16:00,60.6,39.8,29.00,West,259,0.0,0.0,46,0.00,,---,0.00,VWS V14.00,2013-06-10 02:16:00,
2013-06-09 20:54:00,59.5,40.4,28.97,NE,46,0.0,4.0,49,0.00,,---,0.00,VWS V14.00,2013-06-10 03:54:00,
2013-06-09 21:00:00,59.4,40.2,29.00,NW,304,0.0,0.0,49,0.00,,---,0.00,VWS V14.00,2013-06-10 04:00:00,
2013-06-09 21:01:00,59.4,40.2,29.00,ESE,102,0.0,2.2,49,0.00,,---,0.00,VWS V14.00,2013-06-10 04:01:00,
2013-06-09 21:03:00,59.4,40.2,29.00,SW,229,0.0,0.0,49,0.00,,---,0.00,VWS V14.00,2013-06-10 04:03:00,
2013-06-09 21:05:00,59.4,40.2,29.00,East,85,0.0,0.0,49,0.00,,---,0.00,VWS V14.00,2013-06-10 04:05:00,
2013-06-09 21:06:00,59.4,40.2,29.00,WNW,301,0.0,0.0,49,0.00,,---,0.00,VWS V14.00,2013-06-10 04:06:00,
2013-06-09 21:27:00,59.0,41.4,29.00,ENE,69,0.0,3.6,52,0.00,,---,0.00,VWS V14.00,2013-06-10 04:27:00,
2013-06-09 21:28:00,59.0,41.4,29.00,NW,308,0.0,0.0,52,0.00,,---,0.00,VWS V14.00,2013-06-10 04:28:00,
2013-06-09 21:29:00,59.0,41.4,29.00,WNW,288,0.0,0.0,52,0.00,,---,0.00,VWS V14.00,2013-06-10 04:29:00,
2013-06-09 21:40:00,59.0,41.4,29.00,ESE,108,0.0,0.0,52,0.00,,---,0.00,VWS V14.00,2013-06-10 04:40:00,
2013-06-09 21:47:00,59.0,41.9,29.00,NNW,329,0.0,0.0,53,0.00,,---,0.00,VWS V14.00,2013-06-10 04:47:00,
2013-06-09 22:20:00,58.6,42.1,29.00,East,100,0.0,2.2,54,0.00,,---,0.00,VWS V14.00,2013-06-10 05:20:00,
2013-06-09 22:26:00,58.6,42.1,29.00,SE,136,4.0,4.0,54,0.00,,---,0.00,VWS V14.00,2013-06-10 05:26:00,
2013-06-09 23:20:00,58.5,41.4,29.03,NW,311,0.0,2.2,53,0.00,,---,0.00,VWS V14.00,2013-06-10 06:20:00,
2013-06-09 23:25:00,58.5,41.4,29.03,West,273,0.0,0.0,53,0.00,,---,0.00,VWS V14.00,2013-06-10 06:25:00,
2013-06-09 23:30:00,58.3,41.2,29.03,NW,321,0.0,0.0,53,0.00,,---,0.00,VWS V14.00,2013-06-10 06:30:00,
2013-06-09 23:37:00,58.3,41.2,29.03,West,267,0.0,0.0,53,0.00,,---,0.00,VWS V14.00,2013-06-10 06:37:00,
2013-06-09 23:42:00,58.3,41.2,29.00,ESE,103,0.0,0.0,53,0.00,,---,0.00,VWS V14.00,2013-06-10 06:42:00,
2013-06-09 23:47:00,58.3,41.2,29.00,SSW,205,0.0,0.0,53,0.00,,---,0.00,VWS V14.00,2013-06-10 06:47:00,
2013-06-09 23:55:00,58.3,41.7,29.00,ESE,108,0.0,4.9,54,0.00,,---,0.00,VWS V14.00,2013-06-10 06:55:00,